Tracking 33831 objects as of 16-Apr-2026
HD Live streaming from Space Station
objects crossing your sky now

STARLINK-4715

Track STARLINK-4715 now!
10-day predictions
STARLINK-4715 is classified as:


NORAD ID: 53801
Int'l Code: 2022-111AE
Perigee: 545.8 km
Apogee: 548.0 km
Inclination: 53.2 °
Period: 95.4 minutes
Semi major axis: 6917 km
RCS: Unknown
Launch date: September 11, 2022
Source: United States (US)
Launch site: AIR FORCE EASTERN TEST RANGE (AFETR)
Your satellite tracking list
Your tracking list is empty




NASA's NSSDC Master Catalog

Two Line Element Set (TLE):
1 53801U 22111AE  26106.27232042  .00000266  00000-0  34823-4 0  9999
2 53801  53.2160  95.1532 0001654  92.0384 268.0798 15.08834832199497
Source of the keplerian elements: AFSPC